W8APS Weather Reports


time (UTC)temp
F
wind
direction
speed
knots
gust
knots
rain 1hr
in
rain 24hr
in
rain mn
in
humidity
%
barometer
mb
20260902011017 82 0 2.6 6.1 0.00 0.00 0.00 81 1015.2
20260902010521 82 225 0.9 7.8 0.00 0.00 0.00 81 1015.1
20260902010036 82 280 2.6 7.8 0.00 0.00 0.00 81 1015.1
20260902005517 82 221 2.6 7.8 0.00 0.00 0.00 81 1015.0
20260902005017 82 173 1.7 4.3 0.00 0.00 0.00 81 1014.8
20260902004539 82 0 0.9 7.0 0.00 0.00 0.00 81 1014.8
20260902004018 82 0 1.7 7.0 0.00 0.00 0.00 80 1014.8
20260902003517 82 248 3.5 6.1 0.00 0.00 0.00 81 1014.7
20260902003039 82 187 0.0 1.7 0.00 0.00 0.00 82 1014.8
20260902002516 82 0 0.0 0.9 0.00 0.00 0.00 81 1014.9
20260902002016 83 0 0.0 0.0 0.00 0.00 0.00 80 1014.6
20260902001538 83 0 0.0 0.0 0.00 0.00 0.00 79 1014.6
20260902001019 83 0 0.0 0.0 0.00 0.00 0.00 78 1014.6
20260902000520 83 0 0.0 0.0 0.00 0.00 0.00 77 1014.6
20260902000039 84 0 0.0 0.0 0.00 0.00 0.00 76 1014.7
20260901235521 84 0 0.0 0.9 0.00 0.00 0.00 75 1014.7
20260901235017 85 0 0.0 0.9 0.00 0.00 0.00 74 1014.7
20260901234533 85 0 0.0 0.9 0.00 0.00 0.00 73 1014.7
20260901234018 85 0 0.0 2.6 0.00 0.00 0.00 74 1014.7
20260901233518 86 0 0.0 2.6 0.00 0.00 0.00 73 1014.8
20260901233044 86 250 0.0 2.6 0.00 0.00 0.00 73 1014.7
20260901232518 86 0 0.0 2.6 0.00 0.00 0.00 72 1014.9
20260901232016 86 234 0.0 4.3 0.00 0.00 0.00 71 1014.9
20260901231538 86 252 0.0 4.3 0.00 0.00 0.00 71 1014.9
20260901231016 87 255 0.9 4.3 0.00 0.00 0.00 70 1015.0
20260901230517 87 223 0.0 3.5 0.00 0.00 0.00 69 1014.9
20260901230038 87 0 0.0 6.1 0.00 0.00 0.00 68 1014.9
20260901225520 88 0 0.0 6.1 0.00 0.06 0.00 68 1014.7
20260901225024 88 239 0.9 6.1 0.00 0.06 0.00 67 1014.7
20260901224543 88 250 0.9 4.3 0.00 0.06 0.00 66 1014.7
20260901224019 89 0 0.9 5.2 0.00 0.06 0.00 66 1014.7
20260901223517 89 268 0.9 5.2 0.00 0.06 0.00 65 1014.7
20260901223035 89 252 0.9 4.3 0.00 0.06 0.00 65 1014.7
20260901222517 89 253 0.0 6.1 0.00 0.06 0.00 66 1014.7
20260901222017 89 194 0.0 6.1 0.00 0.06 0.00 66 1014.7
20260901221534 89 0 1.7 6.1 0.00 0.06 0.00 65 1014.6
20260901221016 89 207 2.6 6.1 0.00 0.06 0.00 65 1014.6
20260901220515 89 202 0.9 4.3 0.00 0.06 0.00 65 1014.6
20260901220035 89 190 0.9 7.8 0.00 0.06 0.00 65 1014.5
20260901215518 89 216 2.6 7.8 0.00 0.06 0.00 65 1014.6
20260901215016 89 240 2.6 8.7 0.00 0.06 0.00 64 1014.5
20260901214541 89 276 2.6 8.7 0.00 0.06 0.00 64 1014.4
20260901214020 89 0 0.9 8.7 0.00 0.06 0.00 64 1014.5
20260901213517 89 252 1.7 8.7 0.00 0.06 0.00 64 1014.4
20260901213036 89 231 4.3 8.7 0.00 0.06 0.00 64 1014.5
20260901212517 89 246 0.9 6.1 0.00 0.06 0.00 65 1014.6
20260901212018 88 0 0.0 6.1 0.00 0.06 0.00 65 1014.7
20260901211535 88 214 1.7 9.6 0.00 0.06 0.00 65 1014.7
20260901211017 88 260 3.5 9.6 0.00 0.06 0.00 65 1014.7
20260901210518 88 235 0.9 8.7 0.00 0.06 0.00 64 1014.7
20260901210033 88 238 1.7 8.7 0.00 0.06 0.00 64 1014.7
20260901205516 89 230 3.5 7.8 0.00 0.06 0.00 63 1014.7
20260901205018 89 224 1.7 9.6 0.00 0.06 0.00 65 1014.6
20260901204533 89 238 2.6 9.6 0.00 0.06 0.00 65 1014.7
20260901204020 89 236 2.6 9.6 0.00 0.06 0.00 64 1014.6
20260901203519 89 248 5.2 9.6 0.00 0.06 0.00 61 1014.7
20260901203041 90 274 2.6 9.6 0.00 0.06 0.00 63 1014.7
20260901202519 89 205 3.5 9.6 0.00 0.06 0.00 63 1014.7
20260901202019 89 260 5.2 8.7 0.00 0.06 0.00 63 1014.8
20260901201533 88 0 0.9 6.1 0.00 0.06 0.00 66 1014.8
20260901201019 88 281 2.6 10.4 0.00 0.06 0.00 64 1014.8
20260901200516 88 0 2.6 10.4 0.00 0.06 0.00 65 1014.7
20260901200047 89 264 1.7 10.4 0.00 0.06 0.00 65 1014.8
20260901195518 88 255 1.7 10.4 0.00 0.06 0.00 66 1014.7
20260901195022 88 250 3.5 10.4 0.00 0.06 0.00 64 1014.8
20260901194539 88 248 2.6 9.6 0.00 0.06 0.00 67 1014.9
20260901194017 88 228 3.5 9.6 0.00 0.06 0.00 66 1014.9
20260901193517 88 267 2.6 11.3 0.00 0.06 0.00 66 1015.0
20260901193034 89 248 5.2 11.3 0.00 0.06 0.00 65 1015.0
20260901192519 89 287 0.0 7.0 0.00 0.06 0.00 66 1015.2
20260901192018 89 0 2.6 6.1 0.00 0.06 0.00 66 1015.1
20260901191542 89 212 0.9 8.7 0.00 0.06 0.00 67 1015.1
20260901191022 88 0 0.0 8.7 0.00 0.06 0.00 67 1015.1
20260901190518 88 264 2.6 8.7 0.00 0.06 0.00 66 1015.1
20260901190046 89 0 2.6 8.7 0.00 0.06 0.00 66 1015.0
20260901185521 89 229 1.7 7.0 0.00 0.08 0.00 64 1015.0
20260901185018 88 265 1.7 7.0 0.00 0.08 0.00 65 1015.0
20260901184540 89 285 3.5 7.0 0.00 0.08 0.00 65 1014.9
20260901184018 89 336 1.7 4.3 0.00 0.08 0.00 64 1014.8
20260901183515 89 274 0.9 6.1 0.00 0.08 0.00 64 1014.9
20260901183035 88 0 0.9 6.1 0.00 0.08 0.00 67 1014.9
20260901182517 88 250 1.7 7.0 0.00 0.08 0.00 68 1014.9
20260901182016 88 0 1.7 7.0 0.00 0.08 0.00 67 1014.9
20260901181534 88 228 2.6 7.0 0.00 0.08 0.00 66 1015.0
20260901181016 88 328 0.0 6.1 0.00 0.08 0.00 69 1014.9
20260901180516 88 245 1.7 7.0 0.00 0.08 0.00 69 1015.0
20260901180035 88 263 1.7 7.0 0.00 0.08 0.00 67 1014.9
20260901175525 89 281 1.7 7.0 0.00 0.08 0.00 65 1015.0
20260901175020 89 234 0.9 6.1 0.00 0.08 0.00 67 1015.0
20260901174541 88 207 1.7 7.0 0.00 0.08 0.00 67 1015.0
20260901174026 89 301 0.9 7.0 0.00 0.08 0.00 66 1015.1
20260901173518 89 234 1.7 6.1 0.00 0.08 0.00 66 1015.0
20260901173036 88 270 0.9 6.1 0.00 0.08 0.00 68 1015.1
20260901172518 88 181 1.7 5.2 0.00 0.08 0.00 66 1015.1
20260901172019 88 153 0.9 7.8 0.00 0.08 0.00 69 1015.2
20260901171540 87 240 3.5 8.7 0.00 0.08 0.00 68 1015.1
20260901171017 87 158 2.6 8.7 0.00 0.08 0.00 67 1015.1
20260901170520 87 210 4.3 8.7 0.00 0.08 0.00 66 1015.1
20260901170033 88 193 1.7 7.0 0.00 0.08 0.00 67 1015.1
20260901165523 87 238 2.6 7.0 0.00 0.14 0.00 66 1015.2
20260901165020 88 210 0.9 5.2 0.00 0.14 0.00 67 1015.3
20260901164537 87 221 0.9 3.5 0.00 0.14 0.00 69 1015.4
20260901164017 86 257 0.9 6.1 0.00 0.14 0.00 70 1015.6
20260901163519 86 248 1.7 6.1 0.00 0.14 0.00 70 1015.6
20260901163038 87 200 0.9 6.1 0.00 0.14 0.00 69 1015.7
20260901162517 86 0 0.0 4.3 0.00 0.14 0.00 71 1015.7
20260901162017 86 0 1.7 4.3 0.00 0.14 0.00 72 1015.9
20260901161543 86 0 0.9 4.3 0.00 0.14 0.00 71 1015.9
20260901161021 86 274 0.0 5.2 0.00 0.14 0.00 71 1015.9
20260901160521 86 230 0.9 5.2 0.00 0.14 0.00 70 1015.9
20260901160038 86 228 0.9 5.2 0.00 0.14 0.00 71 1015.9
20260901155519 85 0 1.7 6.1 0.00 0.14 0.00 72 1015.9
20260901155019 85 0 0.0 6.1 0.00 0.14 0.00 72 1015.9
20260901154534 85 204 0.0 4.3 0.00 0.14 0.00 73 1015.8
20260901154019 85 238 0.9 4.3 0.00 0.14 0.00 73 1015.8
20260901153521 85 225 0.9 4.3 0.00 0.14 0.00 73 1015.8
20260901153039 85 166 0.0 4.3 0.00 0.14 0.00 73 1016.0
20260901152517 84 236 0.9 4.3 0.00 0.14 0.00 75 1015.9
20260901152021 83 0 0.0 4.3 0.00 0.14 0.00 76 1015.9
20260901151542 83 0 1.7 4.3 0.00 0.14 0.00 74 1015.9
20260901151020 84 224 0.9 4.3 0.00 0.14 0.00 75 1015.9
20260901150520 83 232 0.9 3.5 0.00 0.14 0.00 76 1015.8
20260901150041 83 0 0.0 5.2 0.00 0.14 0.00 77 1015.8
20260901145519 82 200 0.9 5.2 0.00 0.14 0.00 78 1015.9
20260901145018 81 228 1.7 5.2 0.00 0.14 0.00 78 1015.9
20260901144540 82 0 0.0 4.3 0.00 0.14 0.00 78 1015.9
20260901144020 81 0 0.9 4.3 0.00 0.14 0.00 78 1016.0
20260901143521 82 231 0.9 4.3 0.00 0.14 0.00 78 1016.1
20260901143039 81 243 0.0 6.1 0.00 0.14 0.00 79 1016.0
20260901142519 81 228 0.9 6.1 0.00 0.14 0.00 79 1016.0
20260901142018 81 242 1.7 6.1 0.00 0.14 0.00 78 1015.9
20260901141535 82 0 0.0 2.6 0.00 0.14 0.00 79 1015.9
20260901141017 81 0 0.0 3.5 0.00 0.14 0.00 80 1015.7
20260901140519 80 232 0.9 3.5 0.00 0.14 0.00 80 1015.8
20260901140040 80 0 0.0 2.6 0.00 0.14 0.00 80 1015.8
20260901135520 80 0 0.0 2.6 0.00 0.14 0.00 80 1015.7
20260901135017 80 0 0.0 0.9 0.00 0.14 0.00 80 1015.8
20260901134539 79 0 0.0 2.6 0.00 0.14 0.00 82 1015.7
20260901134017 79 0 0.9 2.6 0.00 0.14 0.00 82 1015.8
20260901133517 78 0 0.0 2.6 0.00 0.14 0.00 84 1016.0
20260901133035 78 0 0.0 3.5 0.00 0.14 0.00 85 1015.9
20260901132521 77 0 0.9 3.5 0.00 0.14 0.00 85 1015.9
20260901132018 77 0 0.0 3.5 0.00 0.14 0.00 85 1015.9
20260901131537 76 0 0.9 2.6 0.00 0.14 0.00 86 1015.9
20260901131018 76 0 0.0 2.6 0.00 0.14 0.00 86 1015.9
20260901130519 76 0 0.0 2.6 0.00 0.14 0.00 87 1015.9
20260901130035 76 240 0.0 2.6 0.00 0.14 0.00 87 1015.8
20260901125518 75 0 0.0 2.6 0.00 0.14 0.00 88 1015.9
20260901125017 75 0 0.0 2.6 0.00 0.14 0.00 88 1016.0
20260901124537 75 0 0.0 0.9 0.00 0.14 0.00 88 1015.9
20260901124016 75 0 0.0 0.9 0.00 0.14 0.00 90 1015.9
20260901123518 75 0 0.0 0.9 0.00 0.14 0.00 91 1015.9
20260901123034 74 0 0.0 0.9 0.00 0.14 0.00 91 1015.9
20260901122519 73 0 0.0 0.9 0.00 0.14 0.00 92 1015.9
20260901122021 73 0 0.0 0.0 0.00 0.14 0.00 92 1015.7
20260901121553 73 0 0.0 0.0 0.00 0.14 0.00 93 1015.7
20260901121019 72 0 0.0 0.0 0.00 0.14 0.00 94 1015.7
20260901120519 72 0 0.0 0.0 0.00 0.14 0.00 94 1015.7
20260901120034 71 0 0.0 0.0 0.00 0.14 0.00 95 1015.6
20260901115518 71 0 0.0 0.0 0.00 0.14 0.00 95 1015.6
20260901115016 71 0 0.0 0.0 0.00 0.14 0.00 96 1015.6
20260901114534 71 0 0.0 0.0 0.00 0.14 0.00 96 1015.6
20260901114015 70 0 0.0 0.0 0.00 0.14 0.00 96 1015.6
20260901113516 70 0 0.0 0.0 0.00 0.14 0.00 96 1015.6
20260901113035 70 0 0.0 0.0 0.00 0.14 0.00 96 1015.5
20260901112519 69 0 0.0 0.9 0.00 0.14 0.00 96 1015.4
20260901112019 69 0 0.0 0.9 0.00 0.14 0.00 96 1015.4
20260901111539 69 0 0.0 0.0 0.00 0.14 0.00 96 1015.5
20260901111021 69 0 0.0 0.0 0.00 0.14 0.00 96 1015.4
20260901110521 69 0 0.0 0.0 0.00 0.14 0.00 96 1015.4
20260901110038 69 0 0.0 0.0 0.00 0.14 0.00 96 1015.3
20260901105517 69 0 0.0 0.0 0.00 0.14 0.00 96 1015.2
20260901105018 70 0 0.0 0.0 0.00 0.14 0.00 96 1015.2
20260901104545 70 0 0.0 0.0 0.00 0.14 0.00 96 1015.1
20260901104017 70 0 0.0 0.9 0.00 0.14 0.00 96 1015.2
20260901103520 70 0 0.0 0.9 0.00 0.14 0.00 96 1015.2
20260901103033 70 0 0.0 0.9 0.00 0.14 0.00 96 1015.1
20260901102516 70 0 0.0 0.0 0.00 0.14 0.00 96 1015.2
20260901102017 70 0 0.0 0.0 0.00 0.14 0.00 95 1015.0
20260901101535 70 0 0.0 0.0 0.00 0.14 0.00 95 1015.0
20260901101021 70 0 0.0 0.0 0.00 0.14 0.00 95 1015.0
20260901100518 70 0 0.0 0.0 0.00 0.14 0.00 95 1014.9
20260901100038 70 0 0.0 0.0 0.00 0.14 0.00 95 1014.9
20260901095519 70 0 0.0 0.0 0.00 0.14 0.00 95 1014.9
20260901095016 70 0 0.0 0.0 0.00 0.14 0.00 95 1014.9
20260901094535 70 0 0.0 0.0 0.00 0.14 0.00 95 1015.0
20260901094018 70 0 0.0 0.9 0.00 0.14 0.00 95 1015.0
20260901093517 70 0 0.0 0.9 0.00 0.14 0.00 95 1015.0
20260901093034 71 0 0.0 1.7 0.00 0.14 0.00 95 1015.0
20260901092522 71 0 0.0 1.7 0.00 0.14 0.00 95 1015.1
20260901092018 71 0 0.0 1.7 0.00 0.14 0.00 95 1015.1
20260901091538 71 0 0.0 1.7 0.00 0.14 0.00 95 1014.9
20260901091017 71 0 0.0 1.7 0.00 0.14 0.00 95 1015.0
20260901090522 71 0 0.0 1.7 0.00 0.14 0.00 95 1015.0
20260901090039 70 257 0.0 1.7 0.00 0.14 0.00 95 1015.0
20260901085515 70 0 0.0 0.0 0.00 0.14 0.00 95 1014.8
20260901085015 70 0 0.0 0.0 0.00 0.14 0.00 95 1014.7
20260901084533 70 0 0.0 0.0 0.00 0.14 0.00 95 1014.7
20260901084017 70 0 0.0 0.0 0.00 0.14 0.00 95 1014.6
20260901083518 70 0 0.0 0.0 0.00 0.14 0.00 95 1014.7
20260901083036 71 0 0.0 0.9 0.00 0.14 0.00 95 1014.7
20260901082519 71 0 0.0 0.9 0.00 0.14 0.00 95 1014.7
20260901082018 71 0 0.0 0.9 0.00 0.14 0.00 95 1014.7
20260901081534 71 0 0.0 0.0 0.00 0.14 0.00 95 1014.7
20260901081018 70 0 0.0 0.0 0.00 0.14 0.00 95 1014.7
20260901080518 70 0 0.0 0.0 0.00 0.14 0.00 95 1014.7
20260901080035 71 0 0.0 0.0 0.00 0.14 0.00 95 1014.6
20260901075517 71 0 0.0 0.0 0.00 0.14 0.00 95 1014.6
20260901075017 71 0 0.0 0.0 0.00 0.14 0.00 95 1014.5
20260901074534 71 0 0.0 0.0 0.00 0.14 0.00 95 1014.6
20260901074016 71 0 0.0 0.0 0.00 0.14 0.00 95 1014.6
20260901073516 71 0 0.0 0.0 0.00 0.14 0.00 94 1014.6
20260901073038 71 0 0.0 0.0 0.00 0.14 0.00 94 1014.6
20260901072520 71 0 0.0 0.0 0.00 0.14 0.00 94 1014.7
20260901072020 71 0 0.0 0.0 0.00 0.14 0.00 94 1014.7
20260901071535 71 0 0.0 0.0 0.00 0.14 0.00 93 1014.7
20260901071015 71 0 0.0 0.0 0.00 0.14 0.00 93 1014.7
20260901070518 71 0 0.0 0.0 0.00 0.14 0.00 93 1014.7
20260901070042 72 0 0.0 0.0 0.00 0.14 0.00 93 1014.7
20260901065518 72 0 0.0 0.0 0.00 0.14 0.00 92 1014.8
20260901065021 72 0 0.0 0.0 0.00 0.14 0.00 92 1014.6
20260901064543 72 0 0.0 0.0 0.00 0.14 0.00 92 1014.6
20260901064020 72 0 0.0 0.0 0.00 0.14 0.00 92 1014.7
20260901063520 72 0 0.0 0.0 0.00 0.14 0.00 91 1014.6
20260901063038 72 0 0.0 0.0 0.00 0.14 0.00 91 1014.6
20260901062518 73 0 0.0 0.0 0.00 0.14 0.00 91 1014.7
20260901062021 73 0 0.0 0.0 0.00 0.14 0.00 91 1014.6
20260901061539 73 0 0.0 0.0 0.00 0.14 0.00 91 1014.7
20260901061019 73 0 0.0 0.0 0.00 0.14 0.00 90 1014.7
20260901060521 73 0 0.0 1.7 0.00 0.14 0.00 90 1014.7
20260901060037 73 167 0.0 1.7 0.00 0.14 0.00 90 1014.7
20260901055518 73 0 0.0 0.9 0.00 0.14 0.00 90 1014.8
20260901055016 73 0 0.0 0.9 0.00 0.14 0.00 89 1014.7
20260901054536 73 0 0.0 0.9 0.00 0.14 0.00 89 1014.9
20260901054021 74 0 0.0 0.9 0.00 0.14 0.00 89 1014.9
20260901053519 74 0 0.0 0.9 0.00 0.14 0.00 89 1014.9
20260901053038 74 0 0.0 0.9 0.00 0.14 0.00 89 1015.0
20260901052523 74 0 0.0 0.9 0.00 0.14 0.00 88 1015.0
20260901052019 74 227 0.0 0.9 0.00 0.14 0.00 88 1015.1
20260901051541 74 0 0.0 0.9 0.00 0.14 0.00 88 1015.0
20260901051019 74 0 0.0 1.7 0.00 0.14 0.00 87 1015.0
20260901050520 74 0 0.0 2.6 0.00 0.14 0.00 87 1015.0
20260901050035 74 0 0.0 3.5 0.00 0.14 0.00 87 1015.0
20260901045520 74 0 0.0 3.5 0.00 0.14 0.00 86 1014.9
20260901045018 74 231 0.9 3.5 0.00 0.14 0.00 86 1015.0
20260901044544 74 0 0.0 2.6 0.00 0.14 0.00 86 1014.9
20260901044019 74 219 0.0 2.6 0.00 0.14 0.00 86 1015.0
20260901043518 74 0 0.0 3.5 0.00 0.14 0.00 86 1015.1
20260901043040 75 155 0.0 3.5 0.00 0.14 0.00 86 1015.1
20260901042520 75 223 0.0 3.5 0.00 0.14 0.00 85 1015.0
20260901042016 75 195 0.9 3.5 0.00 0.14 0.00 85 1015.0
20260901041535 75 0 0.9 5.2 0.00 0.14 0.00 85 1014.9
20260901041020 75 0 0.9 5.2 0.00 0.14 0.00 85 1015.0
20260901040520 75 217 0.9 5.2 0.00 0.14 0.00 85 1015.1
20260901040039 75 207 0.9 6.1 0.00 0.14 0.00 84 1015.1
20260901035519 75 220 1.7 7.0 0.00 0.14 0.14 84 1015.1
20260901035017 75 262 0.0 7.0 0.00 0.14 0.14 84 1015.0
20260901034537 75 0 0.9 7.0 0.00 0.14 0.14 84 1015.1
20260901034018 74 178 2.6 7.0 0.00 0.14 0.14 84 1015.1
20260901033518 74 166 0.9 7.0 0.00 0.14 0.14 84 1015.1
20260901033038 74 209 1.7 7.0 0.00 0.14 0.14 83 1015.1
20260901032518 74 219 1.7 7.0 0.00 0.14 0.14 83 1015.1
20260901032021 74 214 1.7 7.8 0.00 0.14 0.14 83 1015.1
20260901031538 74 211 2.6 7.8 0.00 0.14 0.14 83 1015.0
20260901031019 74 195 1.7 6.1 0.00 0.14 0.14 83 1015.0
20260901030519 73 172 0.9 5.2 0.00 0.14 0.14 83 1015.0
20260901030045 73 160 0.9 5.2 0.00 0.14 0.14 83 1015.0
20260901025523 73 173 1.7 5.2 0.00 0.14 0.14 83 1014.9
20260901025019 73 201 0.9 3.5 0.00 0.14 0.14 83 1014.9
20260901024539 73 163 0.9 6.1 0.00 0.14 0.14 82 1015.1
20260901024020 73 149 0.9 6.1 0.00 0.14 0.14 82 1014.9
20260901023519 73 191 1.7 5.2 0.00 0.14 0.14 82 1015.0
20260901023039 73 181 1.7 5.2 0.00 0.14 0.14 82 1015.0
20260901022519 73 198 1.7 3.5 0.00 0.14 0.14 82 1015.0
20260901022016 73 163 0.9 5.2 0.00 0.14 0.14 82 1015.0
20260901021536 73 160 1.7 5.2 0.00 0.14 0.14 82 1015.0
20260901021021 73 210 1.7 4.3 0.00 0.14 0.14 83 1015.0
20260901020521 73 172 0.9 4.3 0.00 0.14 0.14 83 1015.0
20260901020038 73 217 1.7 4.3 0.00 0.14 0.14 83 1015.1
20260901015519 72 213 1.7 4.3 0.00 0.14 0.14 84 1015.2
20260901015023 72 193 0.9 3.5 0.00 0.14 0.14 85 1015.2
20260901014541 72 169 0.0 5.2 0.00 0.14 0.14 85 1015.3
20260901014016 72 229 0.9 5.2 0.00 0.14 0.14 86 1015.2
20260901013517 72 192 1.7 6.1 0.00 0.14 0.14 86 1015.1
20260901013039 72 185 1.7 6.1 0.00 0.14 0.14 87 1015.0
20260901012521 72 0 0.9 4.3 0.00 0.14 0.14 88 1015.1
20260901012023 72 239 0.9 4.3 0.00 0.14 0.14 89 1015.1
20260901011537 72 182 0.9 4.3 0.00 0.14 0.14 89 1015.1